Time,TemperatureF,DewpointF,PressureIn,WindDirection,WindDirectionDegrees,WindSpeedMPH,WindSpeedGustMPH,Humidity,HourlyPrecipIn,Conditions,Clouds,dailyrainin,SolarRadiationWatts/m^2,SoftwareType,DateUTC
2013-05-07 00:00:00,54.0,22.0,30.01,East,82,4.0,-999.0,28,-99.99,,,-99.99,0.080000,,2013-05-07 06:00:00,
2013-05-07 00:52:00,54.0,22.0,30.01,East,82,4.0,-999.0,28,-99.99,,,-99.99,0.080000,,2013-05-07 06:52:00,
2013-05-07 02:00:00,50.0,22.0,30.01,East,96,2.0,4.0,32,-99.99,,,-99.99,0.100000,,2013-05-07 08:00:00,
2013-05-07 03:00:00,53.0,24.0,30.00,East,83,4.0,-999.0,32,-99.99,,,-99.99,0.140000,,2013-05-07 09:00:00,
2013-05-07 03:52:00,53.0,24.0,30.00,East,83,4.0,-999.0,32,-99.99,,,-99.99,0.140000,,2013-05-07 09:52:00,
2013-05-07 04:00:00,50.0,23.0,30.01,ESE,123,2.0,-999.0,35,-99.99,,,-99.99,0.160000,,2013-05-07 10:00:00,
2013-05-07 04:52:00,50.0,23.0,30.01,ESE,123,2.0,-999.0,35,-99.99,,,-99.99,0.160000,,2013-05-07 10:52:00,
2013-05-07 05:00:00,50.0,24.0,30.01,SE,137,5.0,-999.0,35,-99.99,,,-99.99,0.150000,,2013-05-07 11:00:00,
2013-05-07 05:52:00,50.0,24.0,30.01,SE,137,5.0,-999.0,35,-99.99,,,-99.99,0.150000,,2013-05-07 11:52:00,
2013-05-07 06:00:00,51.0,26.0,30.02,ESE,108,4.0,-999.0,37,-99.99,,,-99.99,0.230000,,2013-05-07 12:00:00,
2013-05-07 06:52:00,51.0,26.0,30.02,ESE,108,4.0,-999.0,37,-99.99,,,-99.99,0.230000,,2013-05-07 12:52:00,
2013-05-07 07:00:00,58.0,27.0,30.03,SE,129,6.0,-999.0,31,-99.99,,,-99.99,40.830002,,2013-05-07 13:00:00,
2013-05-07 07:52:00,58.0,27.0,30.03,SE,129,6.0,-999.0,31,-99.99,,,-99.99,40.830002,,2013-05-07 13:52:00,
2013-05-07 08:00:00,63.0,28.0,30.04,SSE,153,7.0,-999.0,26,-99.99,,,-99.99,224.899994,,2013-05-07 14:00:00,
2013-05-07 08:52:00,63.0,28.0,30.04,SSE,153,7.0,-999.0,26,-99.99,,,-99.99,224.899994,,2013-05-07 14:52:00,
2013-05-07 12:00:00,72.0,29.0,30.03,SSW,194,10.0,-999.0,20,-99.99,,,-99.99,750.799988,,2013-05-07 18:00:00,
2013-05-07 12:52:00,72.0,29.0,30.03,SSW,194,10.0,-999.0,20,-99.99,,,-99.99,750.799988,,2013-05-07 18:52:00,
2013-05-07 13:00:00,72.0,26.0,30.01,South,189,11.0,-999.0,18,-99.99,,,-99.99,899.000000,,2013-05-07 19:00:00,
2013-05-07 13:52:00,72.0,26.0,30.01,South,189,11.0,-999.0,18,-99.99,,,-99.99,899.000000,,2013-05-07 19:52:00,
2013-05-07 14:00:00,73.0,23.0,29.99,South,191,12.0,-999.0,15,-99.99,,,-99.99,860.000000,,2013-05-07 20:00:00,
2013-05-07 14:52:00,73.0,23.0,29.99,South,191,12.0,-999.0,15,-99.99,,,-99.99,860.000000,,2013-05-07 20:52:00,
2013-05-07 15:00:00,76.0,23.0,29.97,SSW,205,12.0,-999.0,14,-99.99,,,-99.99,724.700012,,2013-05-07 21:00:00,
2013-05-07 15:53:00,76.0,23.0,29.97,SSW,205,12.0,-999.0,14,-99.99,,,-99.99,724.700012,,2013-05-07 21:53:00,
2013-05-07 16:00:00,76.0,22.0,29.94,SSW,209,12.0,-999.0,13,-99.99,,,-99.99,784.700012,,2013-05-07 22:00:00,
2013-05-07 16:52:00,76.0,22.0,29.94,SSW,209,12.0,-999.0,13,-99.99,,,-99.99,784.700012,,2013-05-07 22:52:00,
2013-05-07 17:00:00,77.0,24.0,29.93,SSW,210,12.0,-999.0,14,-99.99,,,-99.99,631.900024,,2013-05-07 23:00:00,
2013-05-07 17:52:00,77.0,24.0,29.93,SSW,210,12.0,-999.0,14,-99.99,,,-99.99,631.900024,,2013-05-07 23:52:00,
2013-05-07 18:00:00,77.0,24.0,29.92,SSW,211,11.0,-999.0,14,-99.99,,,-99.99,399.799988,,2013-05-08 00:00:00,
2013-05-07 18:52:00,77.0,24.0,29.92,SSW,211,11.0,-999.0,14,-99.99,,,-99.99,399.799988,,2013-05-08 00:52:00,
2013-05-07 19:00:00,77.0,24.0,29.91,SW,229,13.0,-999.0,14,-99.99,,,-99.99,254.699997,,2013-05-08 01:00:00,
2013-05-07 19:52:00,77.0,24.0,29.91,SW,229,13.0,-999.0,14,-99.99,,,-99.99,254.699997,,2013-05-08 01:52:00,
2013-05-07 20:00:00,73.0,20.0,29.93,WSW,240,12.0,-999.0,13,-99.99,,,-99.99,39.500000,,2013-05-08 02:00:00,
2013-05-07 20:52:00,73.0,20.0,29.93,WSW,240,12.0,-999.0,13,-99.99,,,-99.99,39.500000,,2013-05-08 02:52:00,
2013-05-07 21:00:00,70.0,20.0,29.94,WSW,240,8.0,-999.0,15,-99.99,,,-99.99,0.120000,,2013-05-08 03:00:00,
2013-05-07 21:52:00,70.0,20.0,29.94,WSW,240,8.0,-999.0,15,-99.99,,,-99.99,0.120000,,2013-05-08 03:52:00,
2013-05-07 22:00:00,69.0,18.0,29.95,WSW,237,8.0,-999.0,14,-99.99,,,-99.99,0.010000,,2013-05-08 04:00:00,
2013-05-07 22:53:00,69.0,18.0,29.95,WSW,237,8.0,-999.0,14,-99.99,,,-99.99,0.010000,,2013-05-08 04:53:00,
2013-05-07 23:00:00,68.0,19.0,29.95,WSW,242,9.0,-999.0,15,-99.99,,,-99.99,0.020000,,2013-05-08 05:00:00,
2013-05-07 23:52:00,68.0,19.0,29.95,WSW,242,9.0,-999.0,15,-99.99,,,-99.99,0.020000,,2013-05-08 05:52:00,